TimeCST,TemperatureF,Dew PointF,Humidity,Sea Level PressureIn,VisibilityMPH,Wind Direction,Wind SpeedMPH,Gust SpeedMPH,PrecipitationIn,Events,Conditions,WindDirDegrees,DateUTC
12:53 AM,39.0,27.0,62,30.07,10.0,North,4.6,-,N/A,,Clear,350,2013-02-23 06:53:00
1:53 AM,37.9,27.0,65,30.06,10.0,North,8.1,-,N/A,,Clear,360,2013-02-23 07:53:00
2:53 AM,37.9,26.1,62,30.02,10.0,North,10.4,-,N/A,,Clear,10,2013-02-23 08:53:00
3:53 AM,37.0,25.0,62,30.01,10.0,NNE,6.9,-,N/A,,Clear,20,2013-02-23 09:53:00
4:53 AM,36.0,25.0,64,30.01,10.0,NNE,5.8,-,N/A,,Clear,20,2013-02-23 10:53:00
5:53 AM,34.0,25.0,70,30.02,10.0,North,3.5,-,N/A,,Clear,10,2013-02-23 11:53:00
6:53 AM,32.0,25.0,75,30.06,10.0,Calm,Calm,-,N/A,,Clear,0,2013-02-23 12:53:00
7:53 AM,34.0,26.1,73,30.06,10.0,North,3.5,-,N/A,,Clear,360,2013-02-23 13:53:00
8:53 AM,41.0,27.0,57,30.07,10.0,NNE,6.9,-,N/A,,Clear,30,2013-02-23 14:53:00
9:53 AM,46.0,30.0,54,30.06,10.0,East,4.6,-,N/A,,Clear,90,2013-02-23 15:53:00
10:53 AM,50.0,32.0,50,30.04,10.0,Calm,Calm,-,N/A,,Clear,0,2013-02-23 16:53:00
11:53 AM,53.1,34.0,48,30.04,10.0,Calm,Calm,-,N/A,,Clear,0,2013-02-23 17:53:00
12:53 PM,55.9,35.1,45,30.01,10.0,NW,6.9,-,N/A,,Clear,320,2013-02-23 18:53:00
1:53 PM,57.0,34.0,42,30.00,10.0,North,12.7,20.7,N/A,,Clear,350,2013-02-23 19:53:00
2:53 PM,57.9,33.1,39,29.98,10.0,North,9.2,-,N/A,,Clear,360,2013-02-23 20:53:00
3:53 PM,59.0,32.0,36,29.96,10.0,ENE,3.5,-,N/A,,Clear,70,2013-02-23 21:53:00
4:53 PM,57.9,30.9,36,29.95,10.0,Calm,Calm,-,N/A,,Clear,0,2013-02-23 22:53:00
5:53 PM,55.9,33.1,42,29.96,10.0,NNE,3.5,-,N/A,,Clear,20,2013-02-23 23:53:00
6:53 PM,51.1,35.1,54,29.96,10.0,Calm,Calm,-,N/A,,Clear,0,2013-02-24 00:53:00
7:53 PM,46.9,35.1,63,29.97,10.0,Calm,Calm,-,N/A,,Clear,0,2013-02-24 01:53:00
8:53 PM,46.0,35.1,66,29.99,10.0,Calm,Calm,-,N/A,,Clear,0,2013-02-24 02:53:00
9:53 PM,44.1,33.1,65,30.00,10.0,NE,3.5,-,N/A,,Clear,50,2013-02-24 03:53:00
10:53 PM,44.1,32.0,63,29.98,10.0,NE,3.5,-,N/A,,Clear,50,2013-02-24 04:53:00
11:53 PM,44.1,30.9,60,29.96,10.0,ENE,6.9,-,N/A,,Clear,70,2013-02-24 05:53:00